• In Belarus
  • List of Countries
  • For 7 days
  • Water Temperature
  • Satellite Maps
  • Weather Map
  • Weather Widgets
  • user-avatar
    Login

    Hourly Weather Verh-Tyush

    Today, 17 February, Sunday

    Time Temperature Precipitation Wind Pressure Humidity
    00:00 -10°C° 0 mm 1 mps 723 mmHg 97%
    01:00 -10°C° 0 mm 1 mps 723 mmHg 97%
    02:00 -11°C° 0 mm 1 mps 723 mmHg 98%
    03:00 -12°C° 0 mm 1 mps 723 mmHg 98%
    04:00 -13°C° 0 mm 1 mps 723 mmHg 98%
    05:00 -13°C° 0 mm 0 mps 723 mmHg 98%
    06:00 -14°C° 0 mm 0 mps 722 mmHg 98%
    07:00 -14°C° 0 mm 0 mps 722 mmHg 99%
    08:00 -13°C° 0 mm 0 mps 722 mmHg 97%
    09:00 -12°C° 0 mm 1 mps 722 mmHg 96%
    10:00 -10°C° 0 mm 1 mps 722 mmHg 95%
    11:00 -9°C° 0 mm 1 mps 721 mmHg 94%
    12:00 -9°C° 0 mm 2 mps 721 mmHg 93%
    13:00 -7°C° 0 mm 2 mps 721 mmHg 92%
    14:00 -8°C° 0 mm 3 mps 720 mmHg 91%
    15:00 -7°C° 0 mm 3 mps 720 mmHg 90%
    16:00 -7°C° 0 mm 3 mps 719 mmHg 89%
    17:00 -7°C° 0 mm 3 mps 719 mmHg 90%
    18:00 -7°C° 0 mm 3 mps 718 mmHg 92%
    19:00 -7°C° 0 mm 3 mps 717 mmHg 93%
    20:00 -8°C° 0.1 mm 4 mps 717 mmHg 92%
    21:00 -7°C° 0.1 mm 4 mps 716 mmHg 92%
    22:00 -7°C° 0.1 mm 4 mps 716 mmHg 92%
    23:00 -7°C° 0.2 mm 4 mps 715 mmHg 92%

    Tomorrow, 18 February, Monday

    Time Temperature Precipitation Wind Pressure Humidity
    00:00 -7°C° 0.2 mm 4 mps 715 mmHg 92%
    01:00 -7°C° 0.2 mm 4 mps 714 mmHg 91%
    02:00 -7°C° 0.1 mm 4 mps 714 mmHg 91%
    03:00 -7°C° 0.1 mm 4 mps 713 mmHg 91%
    04:00 -7°C° 0.1 mm 4 mps 713 mmHg 92%
    05:00 -7°C° 0.3 mm 4 mps 713 mmHg 92%
    06:00 -6°C° 0.3 mm 3 mps 713 mmHg 93%
    07:00 -6°C° 0.3 mm 3 mps 713 mmHg 93%
    08:00 -6°C° 0.2 mm 3 mps 713 mmHg 93%
    09:00 -6°C° 0.2 mm 3 mps 713 mmHg 92%
    10:00 -6°C° 0.2 mm 3 mps 713 mmHg 91%
    11:00 -5°C° 0.2 mm 3 mps 713 mmHg 90%
    12:00 -5°C° 0.2 mm 3 mps 713 mmHg 89%
    13:00 -3°C° 0.2 mm 2 mps 714 mmHg 88%
    14:00 -3°C° 0.2 mm 2 mps 714 mmHg 89%
    15:00 -3°C° 0.2 mm 2 mps 714 mmHg 90%
    16:00 -3°C° 0.2 mm 2 mps 715 mmHg 91%
    17:00 -4°C° 0.1 mm 2 mps 715 mmHg 92%
    18:00 -3°C° 0.1 mm 1 mps 716 mmHg 93%
    19:00 -4°C° 0.1 mm 1 mps 716 mmHg 94%
    20:00 -6°C° 0.1 mm 2 mps 717 mmHg 95%
    21:00 -7°C° 0.1 mm 2 mps 717 mmHg 95%
    22:00 -7°C° 0.1 mm 2 mps 718 mmHg 95%
    23:00 -7°C° 0.1 mm 2 mps 719 mmHg 95%

    Day after tomorrow, 19 February, Tuesday

    Time Temperature Precipitation Wind Pressure Humidity
    00:00 -8°C° 0.1 mm 3 mps 719 mmHg 96%
    01:00 -7°C° 0.1 mm 3 mps 720 mmHg 96%
    02:00 -11°C° 0.2 mm 5 mps 721 mmHg 94%
    03:00 -12°C° 0.2 mm 6 mps 722 mmHg 91%
    04:00 -16°C° 0.2 mm 8 mps 723 mmHg 88%
    05:00 -17°C° 0 mm 7 mps 723 mmHg 88%
    06:00 -19°C° 0 mm 7 mps 724 mmHg 88%
    07:00 -21°C° 0 mm 7 mps 725 mmHg 88%
    08:00 -21°C° 0 mm 7 mps 726 mmHg 88%
    09:00 -21°C° 0 mm 6 mps 727 mmHg 88%
    10:00 -21°C° 0 mm 6 mps 728 mmHg 88%
    11:00 -20°C° 0 mm 6 mps 728 mmHg 89%
    12:00 -19°C° 0 mm 5 mps 729 mmHg 90%
    13:00 -18°C° 0 mm 5 mps 729 mmHg 90%
    14:00 -17°C° 0 mm 4 mps 730 mmHg 90%
    15:00 -17°C° 0 mm 4 mps 730 mmHg 91%
    16:00 -16°C° 0 mm 3 mps 731 mmHg 91%
    17:00 -16°C° 0 mm 2 mps 731 mmHg 92%
    18:00 -18°C° 0 mm 2 mps 731 mmHg 93%
    19:00 -17°C° 0 mm 1 mps 731 mmHg 94%
    20:00 -16°C° 0 mm 1 mps 731 mmHg 93%
    21:00 -17°C° 0 mm 2 mps 732 mmHg 93%
    22:00 -16°C° 0 mm 2 mps 732 mmHg 92%
    23:00 -17°C° 0.1 mm 3 mps 731 mmHg 92%

    20 February, Wednesday

    Time Temperature Precipitation Wind Pressure Humidity
    00:00 -16°C° 0.1 mm 3 mps 731 mmHg 93%
    01:00 -17°C° 0.1 mm 4 mps 731 mmHg 93%
    02:00 -17°C° 0 mm 4 mps 731 mmHg 93%
    03:00 -17°C° 0 mm 4 mps 730 mmHg 94%
    04:00 -17°C° 0 mm 4 mps 730 mmHg 94%
    05:00 -17°C° 0 mm 4 mps 730 mmHg 94%
    06:00 -16°C° 0 mm 4 mps 730 mmHg 94%
    07:00 -16°C° 0 mm 4 mps 730 mmHg 94%
    08:00 -15°C° 0 mm 4 mps 730 mmHg 94%
    09:00 -15°C° 0 mm 5 mps 730 mmHg 94%
    10:00 -14°C° 0 mm 5 mps 730 mmHg 94%
    11:00 -13°C° 0.1 mm 5 mps 730 mmHg 94%
    12:00 -13°C° 0.1 mm 5 mps 730 mmHg 93%
    13:00 -12°C° 0.1 mm 5 mps 730 mmHg 92%
    14:00 -12°C° 0.1 mm 6 mps 729 mmHg 92%
    15:00 -12°C° 0.1 mm 6 mps 729 mmHg 92%
    16:00 -12°C° 0.1 mm 6 mps 729 mmHg 92%
    17:00 -12°C° 0 mm 6 mps 728 mmHg 91%
    18:00 -14°C° 0 mm 6 mps 728 mmHg 91%
    19:00 -15°C° 0 mm 7 mps 728 mmHg 90%
    20:00 -14°C° 0 mm 6 mps 728 mmHg 90%
    21:00 -14°C° 0 mm 6 mps 727 mmHg 90%
    22:00 -14°C° 0 mm 6 mps 727 mmHg 90%
    23:00 -12°C° 0.1 mm 6 mps 727 mmHg 90%

    21 February, Thursday

    Time Temperature Precipitation Wind Pressure Humidity
    00:00 -12°C° 0.1 mm 6 mps 726 mmHg 89%
    01:00 -11°C° 0.1 mm 6 mps 726 mmHg 89%
    02:00 -11°C° 0.1 mm 6 mps 726 mmHg 90%
    03:00 -11°C° 0.1 mm 6 mps 726 mmHg 90%
    04:00 -11°C° 0.1 mm 6 mps 726 mmHg 91%
    05:00 -11°C° 0.1 mm 6 mps 726 mmHg 91%
    06:00 -12°C° 0.1 mm 6 mps 726 mmHg 91%
    07:00 -12°C° 0.1 mm 6 mps 726 mmHg 91%
    08:00 -12°C° 0.1 mm 6 mps 726 mmHg 91%
    09:00 -12°C° 0.1 mm 6 mps 726 mmHg 91%
    10:00 -12°C° 0.1 mm 6 mps 726 mmHg 91%
    11:00 -12°C° 0.1 mm 6 mps 726 mmHg 91%
    12:00 -11°C° 0.1 mm 6 mps 726 mmHg 91%
    13:00 -12°C° 0.1 mm 7 mps 726 mmHg 90%
    14:00 -12°C° 0.1 mm 7 mps 726 mmHg 90%
    15:00 -12°C° 0.1 mm 7 mps 726 mmHg 90%
    16:00 -11°C° 0.1 mm 7 mps 726 mmHg 90%
    17:00 -10°C° 0.1 mm 6 mps 726 mmHg 90%
    18:00 -10°C° 0.1 mm 6 mps 726 mmHg 90%
    19:00 -10°C° 0.1 mm 6 mps 726 mmHg 90%
    20:00 -10°C° 0 mm 6 mps 726 mmHg 90%
    21:00 -10°C° 0 mm 6 mps 727 mmHg 90%
    22:00 -10°C° 0 mm 6 mps 727 mmHg 90%
    23:00 -10°C° 0.1 mm 6 mps 727 mmHg 91%

    22 February, Friday

    Time Temperature Precipitation Wind Pressure Humidity
    00:00 -10°C° 0.1 mm 6 mps 727 mmHg 91%
    01:00 -10°C° 0.1 mm 5 mps 727 mmHg 91%
    02:00 -10°C° 0.1 mm 5 mps 727 mmHg 92%
    03:00 -10°C° 0.1 mm 5 mps 728 mmHg 92%
    04:00 -10°C° 0.1 mm 5 mps 728 mmHg 92%
    05:00 -9°C° 0 mm 4 mps 728 mmHg 92%
    06:00 -9°C° 0 mm 4 mps 728 mmHg 92%
    07:00 -9°C° 0 mm 4 mps 728 mmHg 93%
    08:00 -9°C° 0.1 mm 4 mps 728 mmHg 93%
    09:00 -8°C° 0.1 mm 4 mps 728 mmHg 93%
    10:00 -7°C° 0.1 mm 4 mps 728 mmHg 93%
    11:00 -7°C° 0.1 mm 4 mps 728 mmHg 92%
    12:00 -5°C° 0.1 mm 3 mps 728 mmHg 91%
    13:00 -4°C° 0.1 mm 3 mps 728 mmHg 90%
    14:00 -4°C° 0.1 mm 3 mps 728 mmHg 90%
    15:00 -4°C° 0.1 mm 3 mps 728 mmHg 90%
    16:00 -2°C° 0.1 mm 2 mps 728 mmHg 90%
    17:00 -3°C° 0 mm 2 mps 728 mmHg 91%
    18:00 -3°C° 0 mm 2 mps 728 mmHg 92%
    19:00 -2°C° 0 mm 1 mps 728 mmHg 94%
    20:00 -4°C° 0.1 mm 2 mps 728 mmHg 94%
    21:00 -4°C° 0.1 mm 2 mps 728 mmHg 95%
    22:00 -4°C° 0.1 mm 2 mps 728 mmHg 95%
    23:00 -4°C° 0.6 mm 2 mps 728 mmHg 96%
    Show more